Lid_Strength_Index
2 3 6 9 14 15 18 15 13 11 11 7 6 7 8 8 9 12 2 1 1 1 -0 -0 -1 -1 -1 -1 -1 -1 -1 -1 -1 -1 -1 -1 -1 -1 -1 -1 -1 -1 -1 -1 -1 -1 -1 -1 -1
5 4 9 13 17 20 19 14 13 11 9 9 6 6 8 9 5 4 3 1 1 0 -0 -0 -1 -1 -1 -1 -1 -1 -1 -1 -1 -1 -1 -1 -1 -1 -1 -1 -1 -1 -1 -1 -1 -1 -1 -1 -1
6 5 12 14 19 20 18 14 13 11 10 10 7 5 6 7 4 4 2 1 2 1 0 -0 -1 -1 -1 -1 -1 -1 -1 -1 -1 -1 -1 -1 -1 -1 -1 -1 -1 -1 -1 -1 -1 -1 -1 -1 -1
7 9 11 16 19 17 16 14 13 11 10 11 10 12 10 3 4 2 2 1 3 3 -0 -0 -1 -1 -1 -1 -1 -1 -1 -1 -1 -1 -1 -1 -1 -1 -1 -1 -1 -1 -1 -1 -1 -1 -1 -1 -1
8 11 16 18 17 15 14 12 12 12 12 10 10 12 9 3 2 1 1 1 1 1 0 -0 -0 -1 -1 -1 -1 -1 -1 -1 -1 -1 -1 -1 -1 -1 -1 -1 -1 -1 -1 -1 -1 -1 -1 -1 -2
11 12 17 19 17 14 12 12 12 12 11 9 9 9 9 3 3 2 1 1 1 1 0 -0 -1 -1 -1 -1 -1 -1 -1 -1 -1 -1 -1 -1 -1 -1 -1 -1 -1 -1 -1 -1 -1 -1 -1 -2 -2
12 14 17 17 15 13 11 10 12 11 10 9 8 10 6 4 2 2 1 1 1 0 0 -0 -0 -0 -1 -1 -1 -1 -1 -1 -1 -1 -1 -1 -1 -1 -1 -1 -1 -1 -1 -1 -1 -1 -2 -2 -2
12 14 17 15 14 14 11 10 11 10 9 7 7 9 11 5 2 2 1 1 1 1 1 0 0 -0 -0 -0 -1 -1 -1 -1 -1 -1 -1 -1 -1 -1 -1 -1 -1 -1 -1 -1 -2 -2 -2 -2 -1
12 17 18 16 14 13 11 11 9 8 9 8 7 7 4 3 2 3 3 2 2 1 1 0 0 -0 -0 -0 -0 -1 -1 -1 -1 -1 -1 -1 -0 -0 -1 -1 -1 -1 -1 -2 -2 -2 -1 -1 -1
14 18 16 12 12 12 12 12 10 10 10 9 8 6 3 3 3 4 4 4 3 2 1 1 0 0 0 -0 -0 -0 -0 -0 -0 -0 -0 -0 -0 -0 -1 -1 -1 -1 -1 -2 -1 -0 -1 0 0
16 16 13 11 10 10 11 11 9 10 12 10 8 7 4 4 4 4 4 3 3 2 2 1 0 0 0 0 -0 -0 -0 -0 -0 -0 -0 0 -0 -0 -0 -0 -0 -1 -1 -0 2 0 -0 -0 0
14 12 11 10 9 9 10 10 10 10 10 8 7 6 4 4 6 7 4 3 3 2 2 1 0 0 0 -0 0 -0 0 -0 -0 -0 0 -0 0 -0 -0 -0 -0 0 1 1 1 0 -0 0 0
13 11 9 8 9 9 9 10 10 10 8 7 7 6 4 4 4 6 4 3 2 3 2 1 1 1 1 0 0 0 0 0 -0 -0 -0 -0 -0 0 0 0 0 0 1 1 1 0 0 0 -0
10 9 9 9 9 10 10 10 10 9 7 7 7 7 4 5 4 4 3 3 3 2 2 1 1 0 1 0 0 0 0 0 -0 -0 -0 -0 0 1 1 1 1 1 1 1 1 1 0 1 0
9 11 10 10 9 9 8 10 11 8 7 8 8 7 6 6 4 4 3 3 3 2 1 1 1 1 1 1 0 0 1 0 -0 -0 -0 -1 1 1 1 1 1 1 1 1 1 1 1 1 1
12 13 15 11 9 8 9 13 9 7 7 7 7 8 7 6 6 3 3 3 2 2 2 1 1 2 1 2 1 1 1 1 1 -0 -0 -0 1 0 1 0 0 0 1 1 1 1 2 2 1
13 15 14 12 9 9 10 12 9 7 7 7 7 8 8 7 4 4 3 3 2 2 2 2 1 2 2 2 1 1 1 1 1 0 -1 -0 -0 0 -0 -0 1 1 1 1 2 3 3 4 4
15 15 14 13 11 11 12 11 9 8 7 8 7 7 9 8 6 4 3 2 2 2 2 2 2 2 3 2 2 2 2 1 1 0 -0 -0 0 -1 -0 1 1 1 2 3 5 6 6 4 5
12 13 13 11 10 11 11 11 10 8 9 9 8 7 8 9 7 3 3 3 2 2 2 2 3 3 3 2 3 2 2 1 0 -0 -0 -1 -0 -0 1 1 2 3 4 4 6 6 5 5 4
12 13 13 11 10 11 12 11 9 8 9 9 8 8 7 8 9 5 4 3 3 3 2 2 3 3 2 2 1 1 1 1 0 -0 -0 -0 1 1 1 3 4 5 6 5 4 4 6 5 5
12 13 13 12 11 10 12 13 12 10 9 8 8 7 7 8 7 5 5 4 3 3 3 2 2 3 2 1 1 1 1 1 1 2 2 2 2 2 3 4 5 6 6 6 4 4 5 5 5
15 10 10 11 12 16 12 17 13 12 11 10 9 8 7 7 6 4 5 4 4 3 2 2 2 1 1 1 1 2 2 3 2 3 3 4 3 4 5 5 6 6 6 5 4 5 4 3 5
13 9 10 11 13 15 14 16 14 12 11 11 9 9 8 8 6 5 5 4 3 3 2 2 2 1 1 1 1 2 2 3 4 4 5 5 6 6 6 7 7 7 6 5 4 4 4 4 4
9 11 11 14 15 18 15 15 15 14 12 10 9 8 8 7 7 4 4 4 4 3 2 2 2 2 1 1 1 2 2 4 5 6 6 7 7 7 7 7 7 6 4 4 4 4 4 4 4
11 14 19 20 20 19 14 15 14 10 9 8 8 7 7 7 7 5 5 5 4 3 3 3 2 2 2 1 1 2 3 4 4 5 6 7 7 8 8 7 7 6 4 3 3 4 4 4 4
13 13 18 23 21 19 13 18 14 9 7 7 7 7 7 7 6 5 5 4 4 4 3 3 3 3 2 2 2 3 4 4 4 5 6 7 7 8 7 7 5 5 3 4 4 4 4 4 4
13 15 12 17 16 19 16 13 10 9 8 8 8 7 8 8 7 5 5 4 4 4 3 3 3 2 3 2 2 3 3 4 5 6 6 7 7 7 7 7 5 4 3 4 4 4 4 4 4
11 10 16 16 22 22 18 17 15 12 11 9 9 8 8 7 8 5 5 4 4 3 3 2 2 2 4 3 2 3 3 4 6 7 7 8 7 7 8 6 4 4 3 4 4 4 4 5 6
12 13 13 14 16 20 21 18 11 11 10 10 9 9 8 8 8 7 4 4 4 3 3 4 3 3 4 3 2 2 4 5 6 7 7 7 7 8 7 5 4 3 4 4 4 4 5 5 6
10 12 13 18 17 16 18 17 9 9 9 9 9 9 8 7 8 7 5 4 4 4 4 5 3 3 3 3 2 3 4 6 7 7 7 7 8 7 6 5 4 3 4 4 4 4 4 6 7